Location: Ciserano
(45.5833°N, 9.6000°E)
Time: 05:59:26
(UTC+00:00)

Cosmos 1805 Rocket - Pass Details

Date: 29 November 2020
Orbit: 605 x 631 km, 82.5° (Epoch: 27 January)

Event Time Altitude Azimuth Distance (km) Brightness Sun altitude
Rises 05:12:30 0° 181° (S) 2,890 7.2 -14.8°
Reaches altitude 10° 05:14:43 10° 179° (S) 1,992 6.4 -14.4°
Maximum altitude 05:19:06 71° 97° (E) 668 3.9 -13.7°
Drops below altitude 10° 05:23:34 10° 13° (NNE) 2,020 6.1 -12.9°
Sets 05:25:50 0° 11° (NNE) 2,934 7.0 -12.6°
